Location: *
(46.1006°N, 1.8394°E)
Time: 19:46:08
(UTC+00:00)

BREEZE-M DEB (TANK) - Pass Details

Date: 20 September 2019
Orbit: 304 x 14273 km, 49.5° (Epoch: 20 October)

Event Time Altitude Azimuth Distance (km) Brightness Sun altitude
Rises 18:20:09 0° 290° (WNW) 2,747 8.2 -5.2°
Reaches altitude 10° 18:21:31 10° 291° (WNW) 2,150 7.2 -5.4°
Maximum altitude 18:26:00 87° 22° (NNE) 1,280 4.5 -6.2°
Drops below altitude 10° 18:44:23 10° 113° (ESE) 7,939 7.8 -9.3°
Enters shadow 18:46:00 - 114° (ESE) 8,476 8.0 -9.6°
